Tracking 19242 objects as of 16-Aug-2018
HD Live streaming from Space Station
objects crossing your sky now

TVSAT 2

Track TVSAT 2 now!
TVSAT 2 is classified as:


NORAD ID: 20168
Int'l Code: 1989-062A
Perigee: 35,901.8 km
Apogee: 35,928.4 km
Inclination: 14.4 °
Period: 1,442.3 minutes
Semi major axis: 42286 km
RCS: 2.0976 m2 (large)
Launch date: August 8, 1989
Source: Germany (GER)
Launch site: FRENCH GUIANA (FRGUI)
aabbcc
Your satellite tracking list
Your tracking list is empty




NASA's NSSDC Master Catalog

Two Line Element Set (TLE):
1 20168U 89062A   18227.44050150 -.00000121 +00000-0 +00000-0 0  9996
2 20168 014.4197 019.3666 0003142 167.1648 198.7798 00.99840520105922
Source of the keplerian elements: AFSPC